Home > Weather > Kuopio > Past weeks

Flag for Finland Past Weather in Kuopio, Finland — Yesterday and Last 2 Weeks

Now
68 °F

Sunny.


Feels Like: 68 °F
Forecast: 61 / 79 °F
Wind: 5 mph from West

Location: Kuopio Airport

Current Time: Jul 25, 2016 at 9:24:01 AM

Latest Report: Jul 25, 2016 at 8:50 AM


Visibility: 10 mi

Pressure: 30.07 "Hg

Humidity: 88%

Dew Point: 64 °F

Location of KuopioLocation

Past Weather in Kuopio — Graph

°F

Kuopio Temperature Yesterday

Maximum temperature yesterday: 72 °F (at 4:50 PM)
Minimum temperature yesterday: 63 °F (at 1:20 AM)
Average temperature yesterday: 67 °F

High & Low Weather Summary for the Past Weeks

 TemperatureHumidityPressure
High75 °F (Jul 11, 6:20 PM)100% (Jul 11, 3:20 AM)30.15 "Hg (Jul 11, 3:20 AM)
Low54 °F (Jul 19, 4:50 AM)33% (Jul 11, 4:50 PM)29.45 "Hg (Jul 12, 1:20 PM)
Average64 °F78%29.84 "Hg
* Reported Jul 10 8:20 AM — Jul 25 8:20 AM, Kuopio, Weather by CustomWeather, © 2016

Note: Actual official high and low records may vary slightly from our data, if they occured in-between our weather recording intervals... More about our weather records

Advertising

Kuopio Weather History for the Previous 24 Hours

Scroll right to see more
 ConditionsComfort  
Time TempWeatherWind HumidityBarometerVisibility
8:20 AM
Mon, Jul 25
66 °FPartly sunny.5 mph94%30.07 "HgN/A
7:50 AM66 °FLight rain. Partly sunny.3 mph94%30.09 "Hg6 mi
7:20 AM64 °FLots of rain. Overcast.5 mph94%30.09 "Hg2 mi
6:50 AM66 °FSprinkles. Overcast.3 mph94%30.09 "Hg6 mi
6:20 AM66 °FSprinkles. Overcast.5 mph88%30.09 "HgN/A
5:50 AM66 °FSprinkles. Mostly cloudy.3 mph94%30.09 "Hg6 mi
5:20 AM66 °FOvercast.No wind94%30.09 "HgN/A
4:50 AM66 °FOvercast.No wind94%30.09 "Hg6 mi
4:20 AM66 °FMostly cloudy.5 mph88%30.09 "HgN/A
3:50 AM64 °FPassing clouds.6 mph94%30.09 "HgN/A
3:20 AM64 °FOvercast.3 mph94%30.09 "HgN/A
2:50 AM66 °FPassing clouds.3 mph88%30.09 "HgN/A
2:20 AM66 °FOvercast.2 mph88%30.09 "HgN/A
1:50 AM66 °FMostly cloudy.2 mph88%30.09 "HgN/A
1:20 AM66 °FMostly cloudy.2 mph88%30.09 "HgN/A
12:50 AM66 °FMostly cloudy.2 mph88%30.09 "HgN/A
12:20 AM66 °FPassing clouds.1 mph88%30.09 "HgN/A
11:50 PM
Sun, Jul 24
66 °FOvercast.3 mph88%30.09 "HgN/A
11:20 PM66 °FOvercast.3 mph88%30.09 "HgN/A
10:50 PM66 °FOvercast.5 mph88%30.09 "HgN/A
10:20 PM66 °FScattered clouds.6 mph88%30.09 "HgN/A
9:50 PM66 °FSunny.3 mph88%30.09 "Hg10 mi
9:20 PM68 °FSunny.2 mph83%30.09 "Hg10 mi
8:50 PM70 °FSunny.2 mph78%30.09 "Hg10 mi
8:20 PM70 °FSunny.1 mph73%30.09 "Hg10 mi
7:50 PM72 °FPassing clouds.2 mph69%30.09 "HgN/A
7:20 PM72 °FSunny.3 mph73%30.09 "Hg10 mi
6:50 PM72 °FPassing clouds.3 mph69%30.09 "HgN/A
6:20 PM72 °FPartly sunny.3 mph69%30.09 "HgN/A
5:50 PM72 °FPartly sunny.3 mph69%30.09 "HgN/A
5:20 PM72 °FOvercast.2 mph69%30.09 "HgN/A
4:50 PM72 °FOvercast.3 mph73%30.12 "HgN/A
4:20 PM70 °FOvercast.5 mph73%30.12 "HgN/A
3:50 PM70 °FOvercast.3 mph78%30.12 "HgN/A
3:20 PM70 °FOvercast.6 mph73%30.12 "HgN/A
2:50 PM68 °FOvercast.5 mph78%30.12 "HgN/A
2:20 PM70 °FOvercast.3 mph78%30.12 "HgN/A
1:50 PM68 °FOvercast.2 mph83%30.12 "HgN/A
1:20 PM70 °FOvercast.2 mph78%30.12 "HgN/A
12:50 PM68 °FOvercast.3 mph83%30.15 "HgN/A
12:20 PM66 °FOvercast.5 mph83%30.12 "HgN/A
11:50 AM66 °FOvercast.1 mph83%30.12 "HgN/A
11:20 AM66 °FOvercast.2 mph83%30.12 "Hg6 mi
10:50 AM66 °FOvercast.2 mph83%30.12 "HgN/A
10:20 AM66 °FOvercast.2 mph83%30.12 "HgN/A
9:50 AM66 °FOvercast.2 mph83%30.12 "HgN/A
9:20 AM64 °FOvercast.2 mph88%30.12 "HgN/A
Weather by CustomWeather, © 2016

See weather overviewHow to use our weather pages